Total_Precipitation_Accumulation
0.00 0.00 0.00 0.00 0.00 0.00 0.00 0.00 0.00 0.00 0.00 0.01 0.01 0.06 0.45 0.30 0.23 0.39 0.09 0.04 0.00 0.00 0.00 0.00 0.00 0.00 0.00 0.00 0.00 0.00 0.00 0.00 0.00 0.00 0.00 0.00 0.00 0.00 0.01 0.04 0.05 0.06 0.05 0.04
0.00 0.00 0.00 0.00 0.00 0.00 0.00 0.00 0.00 0.00 0.00 0.00 0.01 0.04 0.13 0.18 0.10 0.30 0.49 0.04 0.03 0.00 0.00 0.00 0.00 0.00 0.00 0.00 0.00 0.00 0.00 0.01 0.00 0.00 0.00 0.00 0.00 0.01 0.02 0.06 0.09 0.02 0.07 0.05
0.00 0.00 0.00 0.00 0.00 0.00 0.00 0.00 0.00 0.00 0.00 0.00 0.02 0.12 0.22 0.39 0.18 0.31 0.75 0.25 0.08 0.01 0.00 0.00 0.00 0.00 0.00 0.00 0.00 0.00 0.00 0.00 0.00 0.00 0.00 0.00 0.00 0.00 0.01 0.05 0.02 0.00 0.01 0.01
0.00 0.00 0.00 0.00 0.00 0.00 0.00 0.00 0.00 0.00 0.00 0.00 0.00 0.03 0.11 0.17 0.31 1.10 1.00 0.37 0.08 0.02 0.00 0.00 0.00 0.00 0.00 0.00 0.00 0.00 0.00 0.00 0.00 0.00 0.00 0.00 0.00 0.00 0.00 0.01 0.01 0.01 0.01 0.00
0.00 0.00 0.00 0.00 0.00 0.00 0.00 0.00 0.00 0.00 0.00 0.00 0.00 0.00 0.00 0.01 0.07 0.64 0.95 0.26 0.04 0.01 0.00 0.00 0.00 0.00 0.00 0.00 0.00 0.00 0.00 0.00 0.00 0.00 0.00 0.00 0.00 0.00 0.00 0.00 0.01 0.02 0.02 0.00
0.00 0.00 0.00 0.00 0.00 0.00 0.00 0.00 0.00 0.00 0.00 0.00 0.00 0.00 0.00 0.00 0.00 0.07 0.27 0.22 0.11 0.00 0.00 0.00 0.00 0.00 0.00 0.00 0.00 0.00 0.00 0.00 0.00 0.00 0.00 0.00 0.00 0.00 0.00 0.00 0.00 0.00 0.00 0.01
0.00 0.00 0.00 0.00 0.00 0.00 0.00 0.00 0.00 0.00 0.00 0.00 0.00 0.00 0.00 0.00 0.00 0.01 0.07 0.21 0.10 0.05 0.01 0.00 0.00 0.00 0.00 0.00 0.00 0.00 0.00 0.00 0.00 0.00 0.00 0.00 0.00 0.00 0.00 0.00 0.00 0.00 0.00 0.00
0.00 0.00 0.00 0.00 0.00 0.00 0.00 0.00 0.00 0.00 0.00 0.00 0.00 0.00 0.00 0.00 0.00 0.01 0.04 0.05 0.10 0.07 0.08 0.04 0.00 0.00 0.00 0.00 0.00 0.00 0.00 0.00 0.00 0.00 0.00 0.00 0.00 0.00 0.00 0.00 0.00 0.00 0.00 0.00
0.00 0.00 0.00 0.00 0.00 0.00 0.00 0.00 0.00 0.00 0.00 0.00 0.00 0.00 0.00 0.00 0.00 0.00 0.05 0.08 0.13 0.18 0.15 0.09 0.01 0.01 0.00 0.00 0.00 0.00 0.00 0.00 0.00 0.00 0.00 0.00 0.00 0.00 0.00 0.00 0.00 0.00 0.00 0.00
0.00 0.00 0.00 0.00 0.00 0.00 0.00 0.00 0.00 0.00 0.00 0.00 0.00 0.00 0.00 0.00 0.00 0.00 0.00 0.04 0.03 0.30 0.45 0.21 0.08 0.03 0.06 0.02 0.00 0.00 0.00 0.00 0.00 0.00 0.00 0.00 0.00 0.00 0.00 0.00 0.00 0.00 0.00 0.00
0.00 0.01 0.00 0.00 0.00 0.00 0.00 0.00 0.00 0.00 0.00 0.00 0.00 0.00 0.00 0.00 0.00 0.00 0.00 0.00 0.00 0.03 0.49 0.83 0.33 0.14 0.05 0.05 0.01 0.00 0.00 0.00 0.00 0.00 0.00 0.00 0.00 0.00 0.00 0.00 0.00 0.00 0.00 0.00
0.02 0.04 0.01 0.00 0.00 0.00 0.00 0.00 0.00 0.00 0.00 0.00 0.00 0.00 0.00 0.00 0.00 0.00 0.02 0.02 0.01 0.06 0.13 0.61 0.73 0.36 0.14 0.07 0.04 0.03 0.01 0.00 0.00 0.00 0.00 0.00 0.00 0.00 0.00 0.00 0.00 0.00 0.00 0.00
0.03 0.06 0.03 0.00 0.00 0.00 0.00 0.00 0.00 0.00 0.00 0.00 0.00 0.00 0.00 0.00 0.00 0.00 0.02 0.02 0.00 0.05 0.04 0.12 0.34 0.26 0.14 0.05 0.01 0.01 0.01 0.00 0.00 0.00 0.00 0.00 0.00 0.00 0.00 0.00 0.00 0.00 0.00 0.00
0.14 0.08 0.02 0.00 0.00 0.00 0.00 0.00 0.00 0.00 0.00 0.00 0.00 0.00 0.00 0.00 0.00 0.00 0.00 0.00 0.07 0.17 0.19 0.27 0.25 0.24 0.20 0.03 0.00 0.00 0.00 0.00 0.00 0.00 0.00 0.00 0.00 0.00 0.00 0.00 0.00 0.00 0.00 0.00
0.12 0.07 0.01 0.00 0.00 0.00 0.00 0.00 0.00 0.00 0.00 0.00 0.00 0.00 0.00 0.00 0.00 0.00 0.00 0.00 0.01 0.07 0.26 0.29 0.20 0.15 0.38 0.29 0.03 0.01 0.00 0.00 0.00 0.01 0.00 0.00 0.00 0.00 0.00 0.00 0.00 0.00 0.00 0.00
0.07 0.06 0.04 0.01 0.00 0.00 0.00 0.00 0.00 0.00 0.00 0.00 0.00 0.00 0.00 0.00 0.00 0.00 0.00 0.00 0.00 0.01 0.06 0.07 0.08 0.08 0.13 0.19 0.05 0.03 0.05 0.04 0.00 0.00 0.01 0.02 0.00 0.00 0.00 0.00 0.00 0.00 0.00 0.00
0.14 0.16 0.17 0.03 0.00 0.01 0.00 0.00 0.00 0.00 0.00 0.00 0.00 0.00 0.00 0.00 0.00 0.00 0.00 0.00 0.00 0.00 0.01 0.03 0.08 0.10 0.17 0.06 0.04 0.02 0.10 0.08 0.02 0.01 0.01 0.01 0.01 0.00 0.00 0.00 0.00 0.00 0.00 0.00
0.13 0.31 0.37 0.10 0.09 0.17 0.01 0.00 0.00 0.00 0.00 0.00 0.00 0.00 0.00 0.00 0.00 0.00 0.00 0.00 0.01 0.01 0.02 0.01 0.04 0.15 0.24 0.39 0.48 0.25 0.16 0.15 0.08 0.08 0.01 0.00 0.00 0.00 0.00 0.00 0.00 0.00 0.00 0.00
0.07 0.30 0.37 0.29 0.27 0.16 0.08 0.02 0.00 0.00 0.01 0.00 0.00 0.00 0.00 0.00 0.00 0.00 0.00 0.01 0.01 0.01 0.01 0.02 0.01 0.07 0.16 0.41 0.56 1.12 0.66 0.32 0.14 0.06 0.02 0.00 0.00 0.00 0.00 0.00 0.00 0.00 0.00 0.00
0.15 0.29 0.55 0.43 0.51 0.47 0.19 0.09 0.03 0.04 0.05 0.00 0.00 0.00 0.00 0.01 0.02 0.00 0.01 0.01 0.06 0.04 0.04 0.02 0.02 0.03 0.01 0.14 0.26 0.47 1.03 0.50 0.25 0.07 0.02 0.04 0.01 0.00 0.00 0.00 0.01 0.00 0.00 0.00
0.31 0.51 0.56 0.42 0.56 0.54 0.24 0.16 0.25 0.28 0.07 0.00 0.00 0.00 0.00 0.01 0.00 0.02 0.02 0.01 0.02 0.07 0.02 0.01 0.01 0.01 0.00 0.03 0.17 0.25 0.19 0.10 0.21 0.11 0.10 0.07 0.02 0.03 0.04 0.05 0.04 0.03 0.01 0.00
0.41 0.63 0.81 0.62 0.67 0.77 0.28 0.43 0.52 0.33 0.15 0.04 0.01 0.00 0.00 0.02 0.03 0.02 0.01 0.01 0.01 0.01 0.00 0.00 0.01 0.01 0.00 0.04 0.08 0.16 0.23 0.11 0.03 0.10 0.11 0.04 0.02 0.04 0.07 0.03 0.03 0.04 0.02 0.01
0.54 0.65 0.76 0.65 0.78 0.86 0.55 0.64 0.55 0.36 0.47 0.22 0.05 0.01 0.02 0.03 0.03 0.04 0.03 0.02 0.01 0.00 0.00 0.00 0.01 0.00 0.02 0.04 0.03 0.01 0.05 0.19 0.18 0.06 0.09 0.08 0.05 0.02 0.04 0.02 0.02 0.00 0.00 0.00
0.62 0.70 0.69 0.65 0.79 0.90 0.59 0.69 0.73 0.59 0.60 0.42 0.15 0.04 0.04 0.04 0.04 0.04 0.03 0.04 0.03 0.02 0.01 0.02 0.02 0.01 0.01 0.01 0.01 0.00 0.00 0.00 0.07 0.11 0.06 0.08 0.14 0.07 0.05 0.04 0.08 0.01 0.00 0.00
0.57 0.62 0.69 0.73 0.82 0.86 0.65 0.87 0.91 0.68 0.57 0.45 0.28 0.18 0.09 0.12 0.09 0.08 0.06 0.04 0.05 0.09 0.07 0.02 0.05 0.05 0.03 0.02 0.02 0.01 0.01 0.00 0.00 0.00 0.03 0.08 0.11 0.14 0.11 0.06 0.07 0.04 0.03 0.05
0.73 0.77 0.84 0.76 0.74 0.97 0.73 0.91 0.93 0.83 0.73 0.67 0.59 0.40 0.29 0.34 0.33 0.17 0.10 0.08 0.08 0.12 0.21 0.21 0.06 0.05 0.05 0.03 0.02 0.01 0.01 0.01 0.01 0.01 0.00 0.01 0.06 0.11 0.08 0.07 0.05 0.17 0.18 0.12